| time (UTC) | temp C | wind direction | speed KPH | gust KPH | rain 1hr cm | rain 24hr cm | rain mn cm | humidity % | barometer mb |
| 20260504231548 | 26 | 96 | 8.0 | 19.3 | 0.00 | 0.00 | 0.00 | 53 | 1015.6 |
| 20260504231030 | 26 | 69 | 11.3 | 19.3 | 0.00 | 0.00 | 0.00 | 52 | 1015.5 |
| 20260504230530 | 26 | 82 | 11.3 | 22.5 | 0.00 | 0.00 | 0.00 | 52 | 1015.5 |
| 20260504230047 | 26 | 67 | 12.9 | 22.5 | 0.00 | 0.00 | 0.00 | 51 | 1015.5 |
| 20260504225532 | 26 | 76 | 11.3 | 22.5 | 0.00 | 0.00 | 0.00 | 51 | 1015.6 |
| 20260504225030 | 26 | 87 | 12.9 | 22.5 | 0.00 | 0.00 | 0.00 | 50 | 1015.6 |
| 20260504224548 | 26 | 80 | 12.9 | 22.5 | 0.00 | 0.00 | 0.00 | 48 | 1015.6 |
| 20260504224031 | 27 | 106 | 8.0 | 22.5 | 0.00 | 0.00 | 0.00 | 47 | 1015.6 |
| 20260504223531 | 27 | 99 | 12.9 | 22.5 | 0.00 | 0.00 | 0.00 | 46 | 1015.5 |
| 20260504223055 | 27 | 84 | 11.3 | 22.5 | 0.00 | 0.00 | 0.00 | 45 | 1015.4 |
| 20260504222533 | 28 | 65 | 11.3 | 22.5 | 0.00 | 0.00 | 0.00 | 43 | 1015.2 |
| 20260504222031 | 28 | 80 | 11.3 | 19.3 | 0.00 | 0.00 | 0.00 | 44 | 1015.5 |
| 20260504221556 | 28 | 83 | 4.8 | 19.3 | 0.00 | 0.00 | 0.00 | 44 | 1015.5 |
| 20260504221031 | 27 | 69 | 6.4 | 16.1 | 0.00 | 0.00 | 0.00 | 44 | 1015.7 |
| 20260504220533 | 27 | 84 | 8.0 | 17.7 | 0.00 | 0.00 | 0.00 | 44 | 1015.8 |
| 20260504220104 | 27 | 138 | 4.8 | 20.9 | 0.00 | 0.00 | 0.00 | 44 | 1015.7 |
| 20260504215530 | 28 | 86 | 11.3 | 20.9 | 0.00 | 0.00 | 0.00 | 43 | 1015.8 |
| 20260504215030 | 27 | 134 | 6.4 | 20.9 | 0.00 | 0.00 | 0.00 | 43 | 1015.6 |
| 20260504214547 | 28 | 82 | 8.0 | 20.9 | 0.00 | 0.00 | 0.00 | 42 | 1015.4 |
| 20260504214030 | 28 | 166 | 8.0 | 17.7 | 0.00 | 0.00 | 0.00 | 41 | 1015.5 |
| 20260504213530 | 28 | 122 | 9.7 | 17.7 | 0.00 | 0.00 | 0.00 | 42 | 1015.7 |
| 20260504213050 | 28 | 85 | 4.8 | 16.1 | 0.00 | 0.00 | 0.00 | 43 | 1015.6 |
| 20260504212531 | 27 | 112 | 6.4 | 16.1 | 0.00 | 0.00 | 0.00 | 43 | 1015.6 |
| 20260504212033 | 27 | 0 | 1.6 | 9.7 | 0.00 | 0.00 | 0.00 | 42 | 1015.6 |
| 20260504211551 | 27 | 119 | 1.6 | 9.7 | 0.00 | 0.00 | 0.00 | 42 | 1015.7 |
| 20260504211032 | 27 | 84 | 3.2 | 12.9 | 0.00 | 0.00 | 0.00 | 42 | 1015.6 |
| 20260504210531 | 28 | 92 | 4.8 | 17.7 | 0.00 | 0.00 | 0.00 | 42 | 1015.7 |
| 20260504210049 | 28 | 101 | 8.0 | 20.9 | 0.00 | 0.00 | 0.00 | 41 | 1015.7 |
| 20260504205532 | 28 | 111 | 9.7 | 20.9 | 0.00 | 0.00 | 0.00 | 41 | 1015.8 |
| 20260504205030 | 29 | 112 | 8.0 | 19.3 | 0.00 | 0.00 | 0.00 | 41 | 1015.7 |
| 20260504204601 | 28 | 132 | 1.6 | 17.7 | 0.00 | 0.00 | 0.00 | 42 | 1015.6 |
| 20260504204030 | 27 | 0 | 3.2 | 17.7 | 0.00 | 0.00 | 0.00 | 43 | 1015.7 |
| 20260504203529 | 27 | 98 | 8.0 | 17.7 | 0.00 | 0.00 | 0.00 | 42 | 1015.8 |
| 20260504203049 | 28 | 121 | 6.4 | 20.9 | 0.00 | 0.00 | 0.00 | 42 | 1015.7 |
| 20260504202530 | 29 | 81 | 11.3 | 20.9 | 0.00 | 0.00 | 0.00 | 40 | 1015.8 |
| 20260504202030 | 30 | 87 | 3.2 | 11.3 | 0.00 | 0.00 | 0.00 | 41 | 1016.0 |
| 20260504201542 | 28 | 130 | 4.8 | 14.5 | 0.00 | 0.00 | 0.00 | 41 | 1015.8 |
| 20260504201030 | 28 | 165 | 6.4 | 17.7 | 0.00 | 0.00 | 0.00 | 42 | 1016.0 |
| 20260504200534 | 28 | 148 | 8.0 | 17.7 | 0.00 | 0.00 | 0.00 | 41 | 1016.1 |
| 20260504200053 | 28 | 72 | 4.8 | 16.1 | 0.00 | 0.00 | 0.00 | 43 | 1016.2 |
| 20260504195528 | 28 | 67 | 6.4 | 17.7 | 0.00 | 0.00 | 0.00 | 43 | 1016.3 |
| 20260504195029 | 28 | 0 | 4.8 | 17.7 | 0.00 | 0.00 | 0.00 | 42 | 1016.3 |
| 20260504194549 | 28 | 86 | 9.7 | 17.7 | 0.00 | 0.00 | 0.00 | 42 | 1016.3 |
| 20260504194030 | 28 | 73 | 3.2 | 16.1 | 0.00 | 0.00 | 0.00 | 43 | 1016.4 |
| 20260504193530 | 28 | 103 | 6.4 | 20.9 | 0.00 | 0.00 | 0.00 | 42 | 1016.5 |
| 20260504193047 | 28 | 115 | 8.0 | 20.9 | 0.00 | 0.00 | 0.00 | 42 | 1016.6 |
| 20260504192529 | 28 | 130 | 11.3 | 20.9 | 0.00 | 0.00 | 0.00 | 42 | 1016.6 |
| 20260504192029 | 28 | 88 | 6.4 | 17.7 | 0.00 | 0.00 | 0.00 | 40 | 1016.7 |
| 20260504191545 | 28 | 72 | 1.6 | 14.5 | 0.00 | 0.00 | 0.00 | 41 | 1016.8 |
| 20260504191033 | 28 | 69 | 4.8 | 22.5 | 0.00 | 0.00 | 0.00 | 40 | 1016.8 |
| 20260504190529 | 28 | 81 | 9.7 | 22.5 | 0.00 | 0.00 | 0.00 | 40 | 1016.9 |
| 20260504190045 | 28 | 90 | 9.7 | 20.9 | 0.00 | 0.00 | 0.00 | 39 | 1017.0 |
| 20260504185530 | 28 | 31 | 9.7 | 20.9 | 0.00 | 0.00 | 0.00 | 38 | 1017.0 |
| 20260504185029 | 28 | 45 | 1.6 | 16.1 | 0.00 | 0.00 | 0.00 | 39 | 1017.3 |
| 20260504184556 | 28 | 140 | 3.2 | 19.3 | 0.00 | 0.00 | 0.00 | 37 | 1017.3 |
| 20260504184030 | 27 | 103 | 9.7 | 22.5 | 0.00 | 0.00 | 0.00 | 37 | 1017.4 |
| 20260504183530 | 27 | 69 | 11.3 | 22.5 | 0.00 | 0.00 | 0.00 | 37 | 1017.4 |
| 20260504183047 | 27 | 41 | 8.0 | 17.7 | 0.00 | 0.00 | 0.00 | 39 | 1017.4 |
| 20260504182529 | 28 | 60 | 6.4 | 17.7 | 0.00 | 0.00 | 0.00 | 37 | 1017.7 |
| 20260504182029 | 27 | 129 | 4.8 | 19.3 | 0.00 | 0.00 | 0.00 | 38 | 1017.7 |
| 20260504181553 | 28 | 142 | 6.4 | 19.3 | 0.00 | 0.00 | 0.00 | 37 | 1017.8 |
| 20260504181031 | 28 | 130 | 6.4 | 19.3 | 0.00 | 0.00 | 0.00 | 39 | 1017.8 |
| 20260504180535 | 28 | 188 | 4.8 | 16.1 | 0.00 | 0.00 | 0.00 | 39 | 1017.7 |
| 20260504180050 | 27 | 116 | 6.4 | 19.3 | 0.00 | 0.00 | 0.00 | 39 | 1017.9 |
| 20260504175529 | 27 | 83 | 6.4 | 19.3 | 0.00 | 0.00 | 0.00 | 38 | 1017.9 |
| 20260504175031 | 27 | 79 | 9.7 | 20.9 | 0.00 | 0.00 | 0.00 | 38 | 1018.0 |
| 20260504174546 | 27 | 121 | 8.0 | 20.9 | 0.00 | 0.00 | 0.00 | 39 | 1018.0 |
| 20260504174029 | 27 | 86 | 9.7 | 20.9 | 0.00 | 0.00 | 0.00 | 37 | 1018.0 |
| 20260504173531 | 27 | 98 | 3.2 | 20.9 | 0.00 | 0.00 | 0.00 | 40 | 1018.1 |
| 20260504173050 | 27 | 155 | 8.0 | 20.9 | 0.00 | 0.00 | 0.00 | 39 | 1018.1 |
| 20260504172610 | 27 | 65 | 9.7 | 19.3 | 0.00 | 0.00 | 0.00 | 39 | 1018.1 |
| 20260504172030 | 27 | 73 | 9.7 | 19.3 | 0.00 | 0.00 | 0.00 | 38 | 1018.2 |
| 20260504171548 | 27 | 44 | 11.3 | 19.3 | 0.00 | 0.00 | 0.00 | 41 | 1018.1 |
| 20260504171030 | 27 | 153 | 1.6 | 8.0 | 0.00 | 0.00 | 0.00 | 41 | 1018.3 |
| 20260504170530 | 26 | 0 | 1.6 | 16.1 | 0.00 | 0.00 | 0.00 | 42 | 1018.3 |
| 20260504151029 | 24 | 0 | 1.6 | 22.5 | 0.00 | 0.00 | 0.00 | 51 | 1019.5 |
| 20260504150535 | 24 | 86 | 4.8 | 22.5 | 0.00 | 0.00 | 0.00 | 50 | 1019.5 |
| 20260504141031 | 23 | 42 | 6.4 | 16.1 | 0.00 | 0.00 | 0.00 | 61 | 1019.6 |
| 20260504140534 | 23 | 73 | 6.4 | 16.1 | 0.00 | 0.00 | 0.00 | 61 | 1019.5 |
| 20260504130534 | 20 | 57 | 8.0 | 24.1 | 0.00 | 0.00 | 0.00 | 77 | 1019.1 |
| 20260504110529 | 13 | 0 | 0.0 | 0.0 | 0.00 | 0.00 | 0.00 | 94 | 1018.5 |
| 20260504100528 | 13 | 0 | 0.0 | 1.6 | 0.00 | 0.00 | 0.00 | 93 | 1018.1 |
| 20260504081556 | 14 | 0 | 0.0 | 1.6 | 0.00 | 0.00 | 0.00 | 89 | 1018.4 |
| 20260504081031 | 14 | 0 | 0.0 | 1.6 | 0.00 | 0.00 | 0.00 | 89 | 1018.5 |
| 20260504080528 | 14 | 0 | 0.0 | 1.6 | 0.00 | 0.00 | 0.00 | 89 | 1018.4 |
| 20260504050533 | 16 | 0 | 0.0 | 0.0 | 0.00 | 0.00 | 0.00 | 83 | 1019.5 |
| 20260504045531 | 16 | 0 | 0.0 | 0.0 | 0.00 | 0.00 | 0.00 | 83 | 1019.4 |
| 20260504045030 | 16 | 0 | 0.0 | 0.0 | 0.00 | 0.00 | 0.00 | 83 | 1019.5 |
| 20260504044545 | 16 | 0 | 0.0 | 0.0 | 0.00 | 0.00 | 0.00 | 82 | 1019.6 |
| 20260504044030 | 16 | 0 | 0.0 | 0.0 | 0.00 | 0.00 | 0.00 | 82 | 1019.6 |
| 20260504043528 | 16 | 0 | 0.0 | 0.0 | 0.00 | 0.00 | 0.00 | 82 | 1019.6 |
| 20260504043055 | 16 | 0 | 0.0 | 0.0 | 0.00 | 0.00 | 0.00 | 81 | 1019.6 |
| 20260504042528 | 16 | 0 | 0.0 | 1.6 | 0.00 | 0.00 | 0.00 | 80 | 1019.6 |
| 20260504042031 | 17 | 0 | 0.0 | 1.6 | 0.00 | 0.00 | 0.00 | 79 | 1019.6 |
| 20260504041544 | 17 | 12 | 0.0 | 3.2 | 0.00 | 0.00 | 0.00 | 78 | 1019.6 |
| 20260504041031 | 18 | 0 | 0.0 | 4.8 | 0.00 | 0.00 | 0.00 | 77 | 1019.6 |
| 20260504040531 | 18 | 31 | 0.0 | 6.4 | 0.00 | 0.00 | 0.00 | 77 | 1019.7 |
| 20260504040046 | 18 | 51 | 1.6 | 6.4 | 0.00 | 0.00 | 0.00 | 77 | 1019.6 |
| 20260504035531 | 18 | 46 | 1.6 | 6.4 | 0.00 | 0.00 | 0.00 | 76 | 1019.7 |
| 20260504035031 | 18 | 78 | 3.2 | 6.4 | 0.00 | 0.00 | 0.00 | 75 | 1019.7 |
| 20260504034549 | 18 | 80 | 1.6 | 6.4 | 0.00 | 0.00 | 0.00 | 75 | 1019.7 |
| 20260504034030 | 18 | 64 | 1.6 | 6.4 | 0.00 | 0.00 | 0.00 | 75 | 1019.6 |
| 20260504033528 | 18 | 76 | 1.6 | 6.4 | 0.00 | 0.00 | 0.00 | 75 | 1019.6 |
| 20260504033048 | 18 | 84 | 0.0 | 8.0 | 0.00 | 0.00 | 0.00 | 75 | 1019.3 |
| 20260504032532 | 18 | 86 | 1.6 | 8.0 | 0.00 | 0.00 | 0.00 | 75 | 1019.5 |
| 20260504032029 | 18 | 46 | 1.6 | 8.0 | 0.00 | 0.00 | 0.00 | 74 | 1019.4 |
| 20260504031546 | 18 | 78 | 3.2 | 6.4 | 0.00 | 0.00 | 0.00 | 74 | 1019.4 |
| 20260504031028 | 18 | 77 | 1.6 | 4.8 | 0.00 | 0.00 | 0.00 | 74 | 1019.4 |
| 20260504030528 | 19 | 67 | 0.0 | 4.8 | 0.00 | 0.00 | 0.00 | 73 | 1019.5 |
| 20260504030047 | 19 | 56 | 0.0 | 4.8 | 0.00 | 0.00 | 0.00 | 73 | 1019.4 |
| 20260504025531 | 19 | 0 | 1.6 | 8.0 | 0.00 | 0.00 | 0.00 | 72 | 1019.2 |
| 20260504025031 | 19 | 58 | 1.6 | 8.0 | 0.00 | 0.00 | 0.00 | 72 | 1019.2 |
| 20260504024548 | 19 | 71 | 1.6 | 8.0 | 0.00 | 0.00 | 0.00 | 72 | 1019.2 |
| 20260504024030 | 19 | 78 | 3.2 | 12.9 | 0.00 | 0.00 | 0.00 | 72 | 1019.3 |
| 20260504023531 | 19 | 110 | 3.2 | 12.9 | 0.00 | 0.00 | 0.00 | 71 | 1019.2 |
| 20260504023049 | 20 | 69 | 4.8 | 11.3 | 0.00 | 0.00 | 0.00 | 71 | 1019.2 |
| 20260504022533 | 20 | 85 | 3.2 | 14.5 | 0.00 | 0.00 | 0.00 | 71 | 1018.8 |
| 20260504022033 | 20 | 106 | 4.8 | 14.5 | 0.00 | 0.00 | 0.00 | 70 | 1018.9 |
| 20260504021556 | 20 | 87 | 3.2 | 11.3 | 0.00 | 0.00 | 0.00 | 69 | 1018.9 |
| 20260504021030 | 20 | 80 | 1.6 | 12.9 | 0.00 | 0.00 | 0.00 | 69 | 1018.9 |
| 20260504020531 | 20 | 67 | 1.6 | 12.9 | 0.00 | 0.00 | 0.00 | 68 | 1018.7 |
| 20260504020125 | 20 | 57 | 4.8 | 12.9 | 0.00 | 0.00 | 0.00 | 68 | 1018.7 |
| 20260504015529 | 20 | 72 | 8.0 | 12.9 | 0.00 | 0.00 | 0.00 | 67 | 1018.7 |
| 20260504015029 | 20 | 81 | 6.4 | 12.9 | 0.00 | 0.00 | 0.00 | 67 | 1018.5 |
| 20260504014559 | 20 | 84 | 6.4 | 19.3 | 0.00 | 0.00 | 0.00 | 66 | 1018.4 |
| 20260504014030 | 20 | 83 | 8.0 | 19.3 | 0.00 | 0.00 | 0.00 | 65 | 1018.2 |
| 20260504013528 | 21 | 65 | 4.8 | 14.5 | 0.00 | 0.00 | 0.00 | 64 | 1018.3 |
| 20260504013055 | 21 | 77 | 6.4 | 14.5 | 0.00 | 0.00 | 0.00 | 64 | 1018.1 |
| 20260504012531 | 21 | 85 | 6.4 | 19.3 | 0.00 | 0.00 | 0.00 | 63 | 1018.2 |
| 20260504012030 | 21 | 78 | 9.7 | 19.3 | 0.00 | 0.00 | 0.00 | 63 | 1018.0 |
| 20260504011546 | 21 | 78 | 8.0 | 17.7 | 0.00 | 0.00 | 0.00 | 62 | 1017.8 |
| 20260504011030 | 21 | 66 | 6.4 | 16.1 | 0.00 | 0.00 | 0.00 | 62 | 1017.9 |
| 20260504010533 | 21 | 65 | 6.4 | 16.1 | 0.00 | 0.00 | 0.00 | 62 | 1017.9 |
| 20260504010044 | 21 | 79 | 4.8 | 16.1 | 0.00 | 0.00 | 0.00 | 62 | 1017.8 |
| 20260504005531 | 21 | 72 | 6.4 | 16.1 | 0.00 | 0.00 | 0.00 | 61 | 1017.7 |
| 20260504005031 | 21 | 57 | 8.0 | 17.7 | 0.00 | 0.00 | 0.00 | 61 | 1017.8 |
| 20260504004608 | 21 | 96 | 9.7 | 17.7 | 0.00 | 0.00 | 0.00 | 61 | 1017.9 |
| 20260504004031 | 21 | 86 | 9.7 | 17.7 | 0.00 | 0.00 | 0.00 | 60 | 1017.8 |
| 20260504003530 | 22 | 86 | 8.0 | 20.9 | 0.00 | 0.00 | 0.00 | 60 | 1017.7 |
| 20260504003051 | 22 | 67 | 11.3 | 20.9 | 0.00 | 0.00 | 0.00 | 60 | 1017.7 |
| 20260504002530 | 22 | 103 | 8.0 | 17.7 | 0.00 | 0.00 | 0.00 | 60 | 1017.8 |
| 20260504002030 | 22 | 80 | 9.7 | 19.3 | 0.00 | 0.00 | 0.00 | 59 | 1017.7 |
| 20260504001617 | 22 | 87 | 6.4 | 20.9 | 0.00 | 0.00 | 0.00 | 59 | 1017.7 |
| 20260504001030 | 22 | 70 | 8.0 | 20.9 | 0.00 | 0.00 | 0.00 | 58 | 1017.6 |
| 20260504000531 | 22 | 83 | 6.4 | 16.1 | 0.00 | 0.00 | 0.00 | 57 | 1017.7 |
| 20260504000100 | 22 | 94 | 9.7 | 17.7 | 0.00 | 0.00 | 0.00 | 56 | 1017.6 |
| 20260503235531 | 23 | 91 | 8.0 | 17.7 | 0.00 | 0.00 | 0.00 | 56 | 1017.7 |
| 20260503235031 | 23 | 80 | 6.4 | 17.7 | 0.00 | 0.00 | 0.00 | 56 | 1017.7 |
| 20260503234543 | 23 | 76 | 6.4 | 16.1 | 0.00 | 0.00 | 0.00 | 56 | 1017.7 |
| 20260503234031 | 23 | 86 | 8.0 | 16.1 | 0.00 | 0.00 | 0.00 | 55 | 1017.6 |
| 20260503233531 | 23 | 107 | 3.2 | 14.5 | 0.00 | 0.00 | 0.00 | 54 | 1017.5 |
| 20260503233049 | 23 | 46 | 6.4 | 16.1 | 0.00 | 0.00 | 0.00 | 54 | 1017.4 |
| 20260503232530 | 23 | 105 | 6.4 | 17.7 | 0.00 | 0.00 | 0.00 | 54 | 1017.5 |
| 20260503232030 | 24 | 80 | 6.4 | 17.7 | 0.00 | 0.00 | 0.00 | 53 | 1017.3 |